Location: *
(45.8589°N, 4.7139°E)
Time: 21:50:13
(UTC+00:00)

STARLINK-1238 - Pass Details

Date: 09 April 2020
Orbit: 549 x 551 km, 53.0° (Epoch: 26 May)

Event Time Altitude Azimuth Distance (km) Brightness Sun altitude
Rises 19:54:55 0° 298° (WNW) 2,735 9.0 -16.1°
Reaches altitude 10° 19:57:13 10° 292° (WNW) 1,838 7.6 -16.4°
Maximum altitude 20:01:12 44° 220° (SW) 768 4.4 -17.0°
Enters shadow 20:02:59 27° 165° (SSE) 1,070 4.7 -17.3°
